Other Surface Observations
Issued by NWS Tucson, AZ

Home | Current Version | Previous Version | Text Only | Print | Product List | Glossary On
Versions: 1 2 3 4 5 6 7 8 9 10 11 12 13 14 15 16 17 18 19 20 21 22 23 24 25 26 27 28 29 30 31 32 33 34 35 36 37 38 39 40 41 42 43 44 45 46 47 48 49 50
000
SXUS55 KTWC 040315
OSOTWC

WEATHER ROUNDUP FOR SOUTHEAST ARIZONA
NATIONAL WEATHER SERVICE TUCSON AZ
815 PM MST SUN MAY 03 2015

AZZ504>506-514-040415-
LOCATION       SKY/WX    TMP DP  RH WIND       PRES   REMARKS
TUCSON         CLOUDY    83  36  18 VRB6      29.83R
DAVIS-MONTHAN  MOCLDY    82  39  21 SE8G33    29.82R
CHILDRENS PARK N/A       84  37  19 NW4               PIMA CO DEQ
ALVERNON/22ND  N/A      N/A N/A N/A N/A               PIMA CO DEQ
CHERRY/GLENN   N/A      N/A N/A N/A N/A               PIMA CO DEQ
TANGERINE      N/A       82 N/A N/A N/A               PIMA CO DEQ
CONTL RANCH    N/A       84  39  20 W4                PIMA CO DEQ
GRANT/1ST      N/A       85  37  18 W4                PIMA CO DEQ
CRAYCROFT/22ND N/A      N/A N/A N/A N/A               PIMA CO DEQ
GOLFLINKS/KOLB N/A      N/A N/A N/A N/A               PIMA CO DEQ
AJO/12TH       N/A       84  36  18 SW6               PIMA CO DEQ
SAGUARO EAST   N/A      N/A N/A N/A N/A               PIMA CO DEQ
FAIRGROUNDS    N/A       82 N/A N/A S7                PIMA CO DEQ
SAGUARO        N/A       79  36  21 W9G22             *SABINO CYN
SAN CARLOS     N/A       78  37  23 NE3               *SAN CARLOS
GREEN VALLEY   N/A      N/A N/A N/A N/A               PIMA CO DEQ
HORSE CAMP CYN N/A       77  32  19 W6G20             *ARAVAIPA CYN
RINCON MTNS    N/A       52  30  43 CALM              *NR MANNING CAMP
$$

AZZ509>511-040415-
LOCATION       SKY/WX    TMP DP  RH WIND       PRES   REMARKS
SAFFORD        CLEAR     76  35  22 NW10      29.80R
STRAY HORSE    N/A       55  29  37 NW6G12            *
TRAIL CABIN    N/A       62  31  31 SW3G10            *N OF GRANVILLE
BLACK HILLS    N/A       76  37  24 N6G15             *N OF FT THOMAS
DRY LAKE       N/A       57  32  38 NW3               *NATANES MTNS
NOON CREEK     N/A       68  31  25 SW5G10            *PINALENO MTNS
COLUMBINE      N/A       48  13  24 S3G11             *PINALENO MTNS
GUTHRIE        N/A       67  27  22 SW21G32           *SW OF GUTHRIE
$$

AZZ502-503-513-040415-
LOCATION       SKY/WX    TMP DP  RH WIND       PRES   REMARKS
NOGALES        PTCLDY    70  38  31 S6        29.91R
SELLS          N/A       77  53  44 W11G23            *
SASABE         N/A       75  42  31 W9G15             *ALTAR VLY
HOPKINS        N/A       58  34  41 W9G17             *SANTA RITA MTNS
CARR CYN       N/A       65  36  34 SW3G11            *W OF HEREFORD
$$

AZZ507-508-512-040415-
LOCATION       SKY/WX    TMP DP  RH WIND       PRES   REMARKS
SIERRA VISTA   PTCLDY    72  36  26 W13       29.95R
DOUGLAS        PTCLDY    72  37  28 W9        29.91R
EMPIRE MTNS    N/A       68  39  34 S7G14             *LAS CIENEGAS NCA
MULESHOE RANCH N/A       75  30  19 W5G10             *PRESERVE
HEADQUARTERS   N/A       68  32  26 S2G10             *CHIRICAHUA MTNS
$$

.............................NOTES.............................
THIS IS AN AUTOMATED COLLECTIVE WITH MINIMAL QUALITY CONTROL.
PIMA CO DEQ SITES HAVE NONSTANDARD WIND SENSOR HEIGHTS.
PIMA CO DEQ SITES DO NOT REPORT WIND GUSTS.
* INDICATES WIND SENSORS LOCATED AT 20 FEET INSTEAD OF 33 FEET.
..............................KEY..............................
SKY/WX - SKY CONDITION/WEATHER
TMP    - TEMPERATURE IN FAHRENHEIT
DP     - DEWPOINT IN FAHRENHEIT
RH     - RELATIVE HUMIDITY IN PERCENT
WIND   - DIRECTION AND SPEED IN MILES PER HOUR (MPH)
VRB    - VARIABLE WIND DIRECTION
PRES   - MEAN SEA LEVEL PRESSURE IN INCHES OF MERCURY
         F - FALLING PRESSURE   R - RISING PRESSURE
         S - STEADY PRESSURE
VSB    - VISIBILITY IN MILES
HX     - HEAT INDEX IN FAHRENHEIT
WCI    - WIND CHILL INDEX IN FAHRENHEIT
N/A    - NOT AVAILABLE
AFB    - AIR FORCE BASE
         DAVIS-MONTHAN IS DAVIS-MONTHAN AIR FORCE BASE
CYN    - CANYON
MTNS   - MOUNTAINS
NCA    - NATIONAL CONSERVATION AREA
NR     - NEAR
VLY    - VALLEY
CONTL  - CONTINENTAL
PIMA CO DEQ - PIMA COUNTY DEPT OF ENVIRONMENTAL QUALITY



USA.gov is the U.S. government's official web portal to all federal, state and local government web resources and services.